Location: Roland
(31.1349°N, 85.4372°W)
Time: 14:03:03
(UTC+00:00)

X-37B - Pass Details

Date: 10 March 2021
Orbit: 380 x 394 km, 45.0° (Epoch: 07 April)

Event Time Altitude Azimuth Distance (km) Brightness Sun altitude
Rises 01:41:55 0° 250° (WSW) 2,261 5.4 -25.5°
Reaches altitude 10° 01:44:05 10° 259° (W) 1,412 4.3 -25.9°
Enters shadow 01:45:36 23° 277° (W) 879 3.1 -26.3°
